Location: Aalen
(48.8330°N, 10.1000°E)
Time: 07:35:23
(UTC+02:00)

Transit 2A Rocket - All Passes

Search period start: 31 July 2021 00:00
Search period end: 10 August 2021 00:00
Orbit: 589 x 913 km, 66.7° (Epoch: 30 July)

Date Brightness Start Highest point End Pass type
(mag) Time Alt. Az. Time Alt. Az. Time Alt. Az.
31 Jul - 00:13:43 10° NW 00:19:12 89° SW 00:25:07 10° SSE visible
31 Jul - 01:57:34 10° WNW 02:01:12 18° WSW 02:04:58 10° SSW visible
31 Jul - 14:53:32 10° SSE 14:57:11 25° ESE 15:01:04 10° NE daylight
31 Jul - 16:35:02 10° WSW 16:39:25 49° NW 16:44:12 10° NNE daylight
31 Jul - 18:20:28 10° WNW 18:23:16 15° NNW 18:26:12 10° NNE daylight
31 Jul - 20:07:05 10° N 20:08:09 11° N 20:09:14 10° NNE daylight
31 Jul - 21:49:08 10° NNW 21:52:54 19° NNE 21:56:52 10° ENE visible
31 Jul - 23:31:06 10° NNW 23:36:30 62° NE 23:42:19 10° SE visible
01 Aug - 01:14:09 10° NW 01:18:51 28° WSW 01:23:46 10° SSW visible
01 Aug - 14:12:24 10° SE 14:14:54 15° ESE 14:17:30 10° ENE daylight
01 Aug - 15:52:12 10° SW 15:56:41 79° NW 16:01:36 10° NE daylight
01 Aug - 17:36:43 10° WNW 17:40:08 19° NNW 17:43:46 10° NNE daylight
01 Aug - 19:23:44 10° NNW 19:24:50 11° N 19:25:56 10° N daylight
01 Aug - 21:06:42 10° NNW 21:09:45 15° NNE 21:12:56 10° ENE daylight
01 Aug - 22:48:34 10° NNW 22:53:42 42° NE 22:59:14 10° ESE visible
02 Aug - 00:31:09 10° NW 00:36:23 44° WSW 00:41:57 10° S visible
02 Aug - 15:09:41 10° SSW 15:14:05 62° ESE 15:18:53 10° NE daylight
02 Aug - 16:53:10 10° W 16:57:05 26° NW 17:01:17 10° NNE daylight
02 Aug - 18:39:49 10° NNW 18:41:31 12° N 18:43:15 10° N daylight
02 Aug - 20:24:13 10° N 20:26:30 13° NNE 20:28:52 10° NE daylight
02 Aug - 22:06:04 10° NNW 22:10:48 30° NE 22:15:53 10° E visible
02 Aug - 23:48:22 10° NW 23:53:50 69° WSW 23:59:42 10° SSE visible
03 Aug - 01:33:12 10° WNW 01:35:37 13° WSW 01:38:04 10° SW visible
03 Aug - 14:27:32 10° S 14:31:37 36° ESE 14:36:01 10° NE daylight
03 Aug - 16:09:53 10° WSW 16:14:08 38° NW 16:18:47 10° NNE daylight
03 Aug - 17:55:50 10° NW 17:58:15 13° NNW 18:00:45 10° NNE daylight
03 Aug - 19:41:39 10° N 19:43:13 11° N 19:44:49 10° NNE daylight
03 Aug - 21:23:36 10° NNW 21:27:49 23° NNE 21:32:17 10° E visible
03 Aug - 23:05:41 10° NW 23:11:12 80° NE 23:17:07 10° SE visible
04 Aug - 00:49:11 10° WNW 00:53:19 21° WSW 00:57:37 10° SSW visible
04 Aug - 13:45:53 10° SSE 13:49:16 21° ESE 13:52:50 10° ENE daylight
04 Aug - 15:26:53 10° SW 15:31:20 58° NW 15:36:14 10° NNE daylight
04 Aug - 17:11:58 10° WNW 17:15:03 17° NNW 17:18:18 10° NNE daylight
04 Aug - 18:58:45 10° NNW 18:59:54 11° N 19:01:03 10° NNE daylight
04 Aug - 20:41:09 10° NNW 20:44:43 18° NNE 20:48:28 10° ENE daylight
04 Aug - 22:23:05 10° NNW 22:28:28 54° NE 22:34:13 10° SE visible
05 Aug - 00:05:58 10° NW 00:10:56 33° WSW 00:16:10 10° S visible
05 Aug - 13:05:15 10° SE 13:07:02 12° ESE 13:08:50 10° E daylight
05 Aug - 14:44:09 10° SSW 14:48:39 87° ESE 14:53:35 10° NE daylight
05 Aug - 16:28:18 10° W 16:31:57 22° NNW 16:35:51 10° NNE daylight
05 Aug - 18:15:10 10° NNW 18:16:33 11° N 18:18:00 10° N daylight
05 Aug - 19:58:41 10° NNW 20:01:32 14° NNE 20:04:30 10° NE daylight
05 Aug - 21:40:34 10° NNW 21:45:38 38° NE 21:51:02 10° ESE visible
05 Aug - 23:23:02 10° NW 23:28:26 52° WSW 23:34:10 10° SSE visible
06 Aug - 14:01:45 10° SSW 14:06:06 51° ESE 14:10:50 10° NE daylight
06 Aug - 15:44:51 10° W 15:48:56 30° NW 15:53:22 10° NNE daylight
06 Aug - 17:31:14 10° NW 17:33:16 12° NNW 17:35:22 10° N daylight
06 Aug - 19:16:10 10° N 19:18:16 12° NNE 19:20:26 10° NE daylight
06 Aug - 20:58:05 10° NNW 21:02:41 28° NE 21:07:36 10° E daylight
06 Aug - 22:40:18 10° NW 22:45:51 80° WSW 22:51:48 10° SSE visible
07 Aug - 00:24:30 10° WNW 00:27:45 16° WSW 00:31:06 10° SW visible
07 Aug - 13:19:45 10° S 13:23:40 30° ESE 13:27:52 10° NE daylight
07 Aug - 15:01:40 10° WSW 15:06:03 44° NW 15:10:50 10° NNE daylight
07 Aug - 16:47:17 10° NW 16:50:01 15° NNW 16:52:52 10° NNE daylight
07 Aug - 18:33:29 10° N 18:34:58 11° N 18:36:28 10° NNE daylight
07 Aug - 20:15:37 10° NNW 20:19:40 21° NNE 20:23:55 10° E daylight
07 Aug - 21:57:39 10° NNW 22:03:10 70° NE 22:09:06 10° SE visible
07 Aug - 23:40:54 10° WNW 23:45:25 25° WSW 23:50:09 10° SSW visible
08 Aug - 12:38:21 10° SSE 12:41:21 18° ESE 12:44:31 10° ENE daylight
08 Aug - 14:18:45 10° SW 14:23:16 69° NW 14:28:15 10° NNE daylight
08 Aug - 16:03:30 10° WNW 16:06:51 18° NNW 16:10:24 10° NNE daylight
08 Aug - 17:50:19 10° NNW 17:51:37 11° N 17:52:57 10° NNE daylight
08 Aug - 19:33:09 10° NNW 19:36:31 17° NNE 19:40:04 10° ENE daylight
08 Aug - 21:15:06 10° NNW 21:20:24 48° NE 21:26:06 10° ESE visible
08 Aug - 22:57:48 10° NW 23:03:00 39° WSW 23:08:28 10° S visible
09 Aug - 13:36:08 10° SSW 13:40:38 73° ESE 13:45:34 10° NE daylight
09 Aug - 15:19:55 10° W 15:23:46 24° NW 15:27:56 10° NNE daylight
09 Aug - 17:06:35 10° NNW 17:08:18 11° N 17:10:04 10° N daylight
09 Aug - 18:50:39 10° NNW 18:53:18 14° NNE 18:56:03 10° NE daylight
09 Aug - 20:32:34 10° NNW 20:37:32 34° NE 20:42:49 10° ESE daylight
09 Aug - 22:14:57 10° NW 22:20:28 61° WSW 22:26:20 10° SSE visible
